C/2018 W1 ( Catalina )

Japanese version
Home page
Updated on September 24, 2019

---------------------------------------------------------------------

* Profile

Discovery Date November 16, 2018
Magnitude 19.8 mag
Discoverer Catalina Sky Survey

* Pictures

* Orbital Elements

Epoch 2019 Apr. 27.0 TT = JDT 2458600.5
T 2019 May 11.85376 TT                                  Williams
q   1.3601895            (2000.0)            P               Q
n   0.00968214     Peri.  251.24780     +0.10162352     -0.59234191
a  21.8016059      Node   233.58934     +0.67179990     -0.55169190
e   0.9376106      Incl.   83.27850     -0.73372853     -0.58716872
P 102
From 260 observations 2018 Nov. 16-2019 July 25, mean residual 0".4.

* Finding Charts

* Magnitudes Graph

        m1 = 13.5 + 5 log d + 10.0 log r

---------------------------------------------------------------------

The orbital elements are published on M.P.E.C. 2019-Q135.
The charts are made with StellaNavigator Ver.10 (AstroArts).
The magnitudes graphs are made with Comet for Windows.

---------------------------------------------------------------------

Copyright(C) Seiichi Yoshida (comet@aerith.net). All rights reserved.